Погода в Караганде

Погода в Караганде : погода сейчас, прогноз погоды и архив. Всё, что Вы хотите узнать о погоде в Караганде!

Поиск расширенной информации на нашем сайте:

Другие новости

Новости СМИ2

Главная страница сайта

Новости сайта

03.07.2017

Напоминаем, что на нашем специализированном сайте Метеоцентр.Азия вы можете получить высокодетализированные автоматические прогнозы погоды по пунктам России, СНГ и мира в авиационном формате (включающие направление и скорость ветра, видимость, явления погоды, количество и форму облачности, нижнюю и верхнюю границу облачности).


Погода в Караганде - сегодня

Время (UTC), дата Ветер
(°,м/с) 
Видим.   Явления Облачность Т
(°С)
Тd
(°С)
f(%) Тe
(°С)
Pmin
(гПа)
dP
(гПа)
Po
(мм)
O2
(г/м3)
Тmin Tmax R s Состояние
почвы
18 15.10.17 140 (ЮВ) 20000 м    ясно 
+1.8 -0.9 82 +3  1019  -0.1  714  286    +14.1       
21 15.10.17 110 (В) 20000 м    ясно 
+1 -1.8 82 1018.9  -0.2  714  287           
00 16.10.17 120 (ЮВ) 20000 м    ясно 
-0.2 -2.9 82 1019.3  0.1  714  288           
03 16.10.17 тихо ()   20000 м    4/0 верхняя 
[Ci fib]
+2.6 -1.8 73 +3  1019.4  0.8  715  285  -1.1         
06 16.10.17 190 (Ю) 20000 м    8/0 верхняя 
[Ci fib]
+9.6 -1.1 47 +10  1017.7  -0.1  714  278  -1.1         
09 16.10.17 220 (ЮЗ) 20000 м    8/0 верхняя 
[Ci sp]
+14 -3.2 30 +15  1015.9  -0.7  714  274           
12 16.10.17 тихо ()   20000 м    9/0 верхняя 
[Ci sp]
+12 -3.4 34 +12  1016.6  0.2  714  276           
15 16.10.17 050 (СВ) 20000 м    ясно 
+7.7 -1.9 51 +7  1018.3  0.6  715  280    +14       
18 16.10.17 100 (В) 20000 м    ясно 
+6.5 -1 59 +6  1018.2  -0.3  714  281    +14       
21 16.10.17 110 (В) 20000 м    ясно 
+5 -1.3 64 +6  1017.8  -0.7  714  282           
00 17.10.17 тихо ()   20000 м    ясно 
+3.8 -1.6 68 +4  1017.5  -0.6  713  284           
03 17.10.17 100 (В) 20000 м    6/3 1000 м средняя 
[Sc|Ac trans]
+6.7 +0.5 65 +7  1016.7  713  280           
06 17.10.17 110 (В) 20000 м    8/0 средняя, верхняя 
[Ac lent|Ci]
+15.2 +3.4 45 +15  1013.6  -1  713  271  +3.2         
09 17.10.17 150 (ЮВ) 20000 м    8/3 600 м кучево-дожд., средняя, верхняя 
[Cb cap|Ac trans|Ci sp]
+18.3 +0.7 31 +19  1011.6  -1.3  712  269           
12 17.10.17 180 (Ю) 10 км  слаб. ливневой дождь  9/6 600 м кучево-дожд., средняя 
[Cb cap|Ac trans]
+15.4 +2.6 42 +16  1012  -0.2  711  271           
15 17.10.17 110 (В) 20000 м  {ливн. осадки}  8/5 1000 м средняя 
[Sc|Ac trans]
+10.1 +5.7 74 +10  1011.5  -1.6  710  275    +18.4  0.6     
18 17.10.17 120 (ЮВ) 20000 м  {ливн. осадки}  6/0 средняя 
[Ac trans]
+9.4 +4.4 71 +9  1009.8  -1.7  709  275    +1.8  0.6     
21 17.10.17 140 (ЮВ) 20000 м    10/0 средняя, верхняя 
[Ac trans|Cs]
+9.4 +3.9 68 +9  1007.5  -2.2  707  275           
00 18.10.17 150 (ЮВ) 20000 м    10/4 600 м кучево-дожд., средняя 
[Cb cap|Ac und]
+11.2 +2.1 53 +10  1006.3  -0.7  707  273           
03 18.10.17 160 (Ю) 10 км  слаб. ливневой дождь  10/10 600 м кучево-дожд. 
[Cb cap]
+11.6 +2.1 52 +11  1006.4  0.1  707  273  +8.8         
06 18.10.17 210 (ЮЗ) 10 км  слаб. ливневой дождь  10/10 600 м кучево-дожд. 
[Cb cap]
+12.1 +5.7 65 +12  1007.6  1.3  708  272  +0.8    0.0     
09 18.10.17 220 (ЮЗ) 20000 м  {ливн. осадки}  10/8 600 м кучево-дожд., средняя 
[Cb cap|Ac und]
+7.8 +2.7 70 +7  1011  2.2  710  277           
12 18.10.17 210 (ЮЗ) 20000 м  {ливн. осадки}  10/8 600 м кучево-дожд., средняя 
[Cb cap|Ac und]
+7 +1.7 69 +6  1013.1  1.8  711  279           
15 18.10.17 180 (Ю) 20000 м    9/9 1000 м 
[Sc diur, vesp]
+5.6 +0.6 70 +4  1014.8  1.3  712  281    +12.6       
18 18.10.17 200 (Ю) 20000 м    8/8 600 м кучево-дожд. 
[Cb cap]
+5.1 +0.6 73 +3  1014.8  -0.2  712  281    +12.6  0.5     
Время (UTC), дата Ветер
(°,м/с) 
Видим.   Явления Облачность Т
(°С)
Тd
(°С)
f(%) Тe
(°С)
Pmin
(гПа)
dP
(гПа)
Po
(мм)
O2
(г/м3)
Тmin Tmax R s Состояние
почвы

Для получения пояснительной информации подведите курсор к названию столбца.

ПОГОДА в Караганде - архив

Всё, что Вы хотите узнать о погоде в Караганде - удобно и подробно!

Выберите нужную дату (начиная с 1 января 2015* года) и нажмите кнопку "Найти".
Будут отображены архивные сводки погоды по пункту Караганда, начиная с указанной даты.


Отображать данные в формате CSV (для использования в таблицах Excel)


Внимание! Наш архив погоды предназначен исключительно для личного некоммерческого использования в познавательных целях. Если Вам необходимы официальные справки о состоянии погоды (для производственных, юридических, коммерческих и т.п. целей), обращайтесь в органы Росгидромета.

*Примечание: данная дата относится к архиву по метеостанциям СССР (Россия, СНГ, Балтия).
Архив по метеостанциям Зарубежной Европы и Азии (кроме Китая) хранится 10 дней, по другим регионам земного шара (Китай, Африка, Америка, Австралия, Океания) - 1 день.

Караганда - район местоположения метеостанции


Название, широта, долгота, высота метеостанции:
Караганда (город) 49.8°ш. 73.2°д. 553 м над ур. моря [Казахстан]

Дополнительная информация

В oтличие oт бoльшинства пoгoдных сайтoв мы публикуем пoдрoбную метеoинфoрмацию в детальнoм прoфессиoнальнoм фoрмате.

Характеристики температуры и влажнoсти вoздуха измеряются на высoте 2 м в тени вдали oт зданий и деревьев.
Скoрoсть ветра измеряется на высoте 10 м (на урoвне рoста челoвека скoрoсть ветра ниже в 1.5-2 раза). Если метеoстанция нахoдится в гoрoде или в лесу, тo скoрoсть ветра занижена на 2-4 м/с пo сравнению с oткрытым местoм. Скoрoсть ветра над акватoриями крупных рек и oзёр, а также на вершинах хoлмoв на 2-5 м/с выше, чем в oбычных услoвиях.
Атмoсфернoе давление в разных тoчках местнoсти мoжет значительнo oтличаться oт давления на метеoстанции, в зависимoсти oт услoвий рельефа (при пoдъёме на 10 м давление пoнижается примернo на 1 мм рт.ст.).